Regional Weather Roundup
Issued by NWS

Home | Current Version | Previous Version | Text Only | Print | Product List | Glossary Off
Versions: 1 2 3 4 5 6 7 8 9 10 11 12 13 14 15 16 17 18 19 20 21 22 23 24 25 26 27 28 29 30 31 32 33 34 35 36 37 38 39 40 41 42 43 44 45 46 47 48 49 50

000
ASUS43 KFSD 211102
RWRSD

WEATHER ROUNDUP FOR SOUTH DAKOTA
NATIONAL WEATHER SERVICE SIOUX FALLS SD
600 AM CDT TUE OCT 21 2014

NOTE: "FAIR" INDICATES FEW OR NO CLOUDS BELOW 12,000 FEET WITH NO
SIGNIFICANT WEATHER AND/OR OBSTRUCTIONS TO VISIBILITY.


SDZ001>005-009-010-012>017-211200-
NORTHWEST AND NORTH CENTRAL SOUTH DAKOTA

CITY           SKY/WX    TMP DP  RH WIND       PRES   REMARKS
FAITH            N/A     47  39  74 S18       29.80S
MOBRIDGE       CLEAR     54  41  61 SE12      29.84S
$$

SDZ012>016-024>037-041>051-057-063-072>074-211200-
SOUTHWEST AND SOUTH CENTRAL SOUTH DAKOTA

CITY           SKY/WX    TMP DP  RH WIND       PRES   REMARKS
RAPID CTY ARPT CLEAR     49  39  68 SE3       29.84F
PIERRE         CLEAR     52  40  63 SE13      29.87F
CUSTER         CLEAR     57  33  40 W8        29.98S
ELLSWORTH AFB  CLEAR     53  40  60 S3        29.83F
PHILIP         CLEAR     48  39  71 CALM      29.85R
PINE RIDGE     CLEAR     58  42  55 SW17      29.91S
SPEARFISH      FAIR      59  36  41 W5        29.85S
WINNER         FAIR      60  39  45 S22       29.92S
$$

SDZ004>011-016>023-039-040-211200-
NORTHEAST SOUTH DAKOTA

CITY           SKY/WX    TMP DP  RH WIND       PRES   REMARKS
ABERDEEN       CLEAR     48  39  71 SE9       29.97F
WATERTOWN      CLEAR     46  38  73 SE9       30.05S
$$

SDZ017-020-022-023-036>040-048>070-211200-
SOUTHEAST SOUTH DAKOTA

CITY           SKY/WX    TMP DP  RH WIND       PRES   REMARKS
SIOUX FALLS    CLEAR     38  35  89 CALM      30.09R
HURON          CLEAR     49  36  61 SE12      29.99F
CHAMBERLAIN    CLEAR     46  37  73 SE8       29.95S
MITCHELL       CLEAR     48  37  65 SE13      30.02F
YANKTON        CLEAR     43  37  81 E8        30.07S
$$

ABBREVIATIONS USED IN REMARKS
   TC - TEMPERATURE IN CELSIUS
  WCI - WIND CHILL INDEX
   HX - HEAT INDEX
  VSB - VISIBILITY




USA.gov is the U.S. government's official web portal to all federal, state and local government web resources and services.